Time,TemperatureF,DewpointF,PressureIn,WindDirection,WindDirectionDegrees,WindSpeedMPH,WindSpeedGustMPH,Humidity,HourlyPrecipIn,Conditions,Clouds,dailyrainin,SoftwareType,DateUTC
2013-07-01 00:10:00,79.3,62.8,29.88,ENE,67,3.1,-999.0,57,-99.99,,,0.00,Acu-Link.com,2013-07-01 05:10:00,
2013-07-01 00:25:00,78.6,62.6,29.88,NE,45,3.1,-999.0,58,-99.99,,,0.00,Acu-Link.com,2013-07-01 05:25:00,
2013-07-01 00:40:00,78.3,62.7,29.89,NE,45,3.8,-999.0,59,-99.99,,,0.00,Acu-Link.com,2013-07-01 05:40:00,
2013-07-01 00:55:00,77.5,62.1,29.89,NNW,337,3.1,-999.0,59,-99.99,,,0.00,Acu-Link.com,2013-07-01 05:55:00,
2013-07-01 01:11:00,77.0,62.5,29.88,NNE,22,2.2,-999.0,61,-99.99,,,0.00,Acu-Link.com,2013-07-01 06:11:00,
2013-07-01 01:26:00,76.6,62.6,29.89,NE,45,4.7,-999.0,62,-99.99,,,0.00,Acu-Link.com,2013-07-01 06:26:00,
2013-07-01 01:41:00,76.3,62.3,29.89,ESE,112,5.1,-999.0,62,-99.99,,,0.00,Acu-Link.com,2013-07-01 06:41:00,
2013-07-01 01:56:00,76.1,62.6,29.89,NE,45,3.1,-999.0,63,-99.99,,,0.00,Acu-Link.com,2013-07-01 06:56:00,
2013-07-01 02:11:00,75.7,62.7,29.89,NE,45,4.7,-999.0,64,-99.99,,,0.00,Acu-Link.com,2013-07-01 07:11:00,
2013-07-01 02:27:00,75.2,62.6,29.89,ESE,112,2.2,-999.0,65,-99.99,,,0.00,Acu-Link.com,2013-07-01 07:27:00,
2013-07-01 02:42:00,74.7,62.5,29.89,NE,45,3.8,-999.0,66,-99.99,,,0.00,Acu-Link.com,2013-07-01 07:42:00,
2013-07-01 02:57:00,74.3,62.6,29.89,ENE,67,2.7,-999.0,67,-99.99,,,0.00,Acu-Link.com,2013-07-01 07:57:00,
2013-07-01 03:13:00,73.9,62.3,29.89,North,0,0.0,-999.0,67,-99.99,,,0.00,Acu-Link.com,2013-07-01 08:13:00,
2013-07-01 03:28:00,73.4,62.2,29.89,WNW,292,0.0,-999.0,68,-99.99,,,0.00,Acu-Link.com,2013-07-01 08:28:00,
2013-07-01 03:44:00,72.1,62.2,29.90,North,0,1.6,-999.0,71,-99.99,,,0.00,Acu-Link.com,2013-07-01 08:44:00,
2013-07-01 03:59:00,72.3,62.4,29.90,NE,45,2.7,-999.0,71,-99.99,,,0.00,Acu-Link.com,2013-07-01 08:59:00,
2013-07-01 04:14:00,70.7,62.4,29.91,South,180,0.0,-999.0,75,-99.99,,,0.00,Acu-Link.com,2013-07-01 09:14:00,
2013-07-01 04:29:00,70.0,63.2,29.91,NNE,22,0.0,-999.0,79,-99.99,,,0.00,Acu-Link.com,2013-07-01 09:29:00,
2013-07-01 04:44:00,70.9,63.7,29.92,NE,45,2.7,-999.0,78,-99.99,,,0.00,Acu-Link.com,2013-07-01 09:44:00,
2013-07-01 04:59:00,72.5,63.7,29.92,NE,45,2.7,-999.0,74,-99.99,,,0.00,Acu-Link.com,2013-07-01 09:59:00,
2013-07-01 05:15:00,72.3,63.6,29.93,NE,45,0.0,-999.0,74,-99.99,,,0.00,Acu-Link.com,2013-07-01 10:15:00,
2013-07-01 05:30:00,72.0,63.6,29.94,North,0,0.0,-999.0,75,-99.99,,,0.00,Acu-Link.com,2013-07-01 10:30:00,
2013-07-01 05:45:00,71.6,64.0,29.94,North,0,0.0,-999.0,77,-99.99,,,0.00,Acu-Link.com,2013-07-01 10:45:00,
2013-07-01 06:00:00,70.7,64.6,29.95,North,0,0.0,-999.0,81,-99.99,,,0.00,Acu-Link.com,2013-07-01 11:00:00,
2013-07-01 06:15:00,69.8,64.4,29.95,East,90,0.0,-999.0,83,-99.99,,,0.00,Acu-Link.com,2013-07-01 11:15:00,
2013-07-01 06:31:00,69.1,65.0,29.95,NNE,22,0.0,-999.0,87,-99.99,,,0.00,Acu-Link.com,2013-07-01 11:31:00,
2013-07-01 06:46:00,69.1,65.4,29.96,NNE,22,0.0,-999.0,88,-99.99,,,0.00,Acu-Link.com,2013-07-01 11:46:00,
2013-07-01 07:01:00,69.8,65.7,29.97,East,90,0.0,-999.0,87,-99.99,,,0.00,Acu-Link.com,2013-07-01 12:01:00,
2013-07-01 07:16:00,71.1,64.9,29.96,NE,45,2.7,-999.0,81,-99.99,,,0.00,Acu-Link.com,2013-07-01 12:16:00,
2013-07-01 07:31:00,72.0,64.7,29.97,ENE,67,2.7,-999.0,78,-99.99,,,0.00,Acu-Link.com,2013-07-01 12:31:00,
2013-07-01 07:47:00,72.1,64.9,29.98,NW,315,0.0,-999.0,78,-99.99,,,0.00,Acu-Link.com,2013-07-01 12:47:00,
2013-07-01 08:02:00,72.9,64.8,29.98,NNE,22,4.7,-999.0,76,-99.99,,,0.00,Acu-Link.com,2013-07-01 13:02:00,
2013-07-01 08:17:00,73.6,64.4,29.98,ENE,67,3.8,-999.0,73,-99.99,,,0.00,Acu-Link.com,2013-07-01 13:17:00,
2013-07-01 08:32:00,73.6,64.4,29.99,NE,45,2.2,-999.0,73,-99.99,,,0.00,Acu-Link.com,2013-07-01 13:32:00,
2013-07-01 08:47:00,75.4,64.9,29.99,NE,45,2.7,-999.0,70,-99.99,,,0.00,Acu-Link.com,2013-07-01 13:47:00,
2013-07-01 09:03:00,76.3,64.5,29.99,NE,45,4.3,-999.0,67,-99.99,,,0.00,Acu-Link.com,2013-07-01 14:03:00,
2013-07-01 09:18:00,77.7,65.4,30.00,ENE,67,3.1,-999.0,66,-99.99,,,0.00,Acu-Link.com,2013-07-01 14:18:00,
2013-07-01 09:33:00,77.5,64.8,30.00,NE,45,4.7,-999.0,65,-99.99,,,0.00,Acu-Link.com,2013-07-01 14:33:00,
2013-07-01 09:48:00,77.5,64.8,30.00,NE,45,3.1,-999.0,65,-99.99,,,0.00,Acu-Link.com,2013-07-01 14:48:00,
2013-07-01 10:03:00,78.1,64.4,30.01,NE,45,3.8,-999.0,63,-99.99,,,0.00,Acu-Link.com,2013-07-01 15:03:00,
2013-07-01 10:19:00,78.4,64.8,30.01,NNE,22,3.1,-999.0,63,-99.99,,,0.00,Acu-Link.com,2013-07-01 15:19:00,
2013-07-01 10:34:00,79.0,65.3,30.01,NNE,22,2.2,-999.0,63,-99.99,,,0.00,Acu-Link.com,2013-07-01 15:34:00,
2013-07-01 10:49:00,78.6,64.0,30.02,NNW,337,3.8,-999.0,61,-99.99,,,0.00,Acu-Link.com,2013-07-01 15:49:00,
2013-07-01 11:04:00,78.8,63.2,30.01,NE,45,6.3,-999.0,59,-99.99,,,0.00,Acu-Link.com,2013-07-01 16:04:00,
2013-07-01 11:20:00,79.7,62.1,30.01,NNE,22,4.7,-999.0,55,-99.99,,,0.00,Acu-Link.com,2013-07-01 16:20:00,
2013-07-01 11:35:00,80.4,62.7,30.01,ENE,67,5.8,-999.0,55,-99.99,,,0.00,Acu-Link.com,2013-07-01 16:35:00,
2013-07-01 11:50:00,80.4,63.3,30.02,North,0,4.7,-999.0,56,-99.99,,,0.00,Acu-Link.com,2013-07-01 16:50:00,
2013-07-01 12:05:00,80.1,62.4,30.01,NNE,22,2.7,-999.0,55,-99.99,,,0.00,Acu-Link.com,2013-07-01 17:05:00,
2013-07-01 12:20:00,80.1,61.9,30.01,NE,45,3.8,-999.0,54,-99.99,,,0.00,Acu-Link.com,2013-07-01 17:20:00,
2013-07-01 12:36:00,81.9,63.0,30.00,North,0,3.8,-999.0,53,-99.99,,,0.00,Acu-Link.com,2013-07-01 17:36:00,
2013-07-01 12:51:00,84.2,63.5,30.00,NNE,22,6.3,-999.0,50,-99.99,,,0.00,Acu-Link.com,2013-07-01 17:51:00,
2013-07-01 13:06:00,85.8,63.2,29.99,West,270,3.1,-999.0,47,-99.99,,,0.00,Acu-Link.com,2013-07-01 18:06:00,
2013-07-01 13:21:00,83.8,60.8,29.98,NNW,337,4.7,-999.0,46,-99.99,,,0.00,Acu-Link.com,2013-07-01 18:21:00,
2013-07-01 13:36:00,86.0,61.5,29.98,North,0,4.3,-999.0,44,-99.99,,,0.00,Acu-Link.com,2013-07-01 18:36:00,
2013-07-01 13:52:00,88.0,61.3,29.97,ENE,67,9.8,-999.0,41,-99.99,,,0.00,Acu-Link.com,2013-07-01 18:52:00,
2013-07-01 14:07:00,86.7,60.2,29.97,NNE,22,7.8,-999.0,41,-99.99,,,0.00,Acu-Link.com,2013-07-01 19:07:00,
2013-07-01 14:22:00,86.2,61.0,29.97,NNE,22,5.1,-999.0,43,-99.99,,,0.00,Acu-Link.com,2013-07-01 19:22:00,
2013-07-01 14:37:00,89.4,60.4,29.96,NE,45,9.8,-999.0,38,-99.99,,,0.00,Acu-Link.com,2013-07-01 19:37:00,
2013-07-01 14:52:00,88.7,58.3,29.96,ESE,112,15.4,-999.0,36,-99.99,,,0.00,Acu-Link.com,2013-07-01 19:52:00,
2013-07-01 15:07:00,90.9,59.4,29.96,NNE,22,4.7,-999.0,35,-99.99,,,0.00,Acu-Link.com,2013-07-01 20:07:00,
2013-07-01 15:23:00,88.3,58.7,29.95,North,0,7.4,-999.0,37,-99.99,,,0.00,Acu-Link.com,2013-07-01 20:23:00,
2013-07-01 15:38:00,88.7,57.5,29.94,NE,45,7.8,-999.0,35,-99.99,,,0.00,Acu-Link.com,2013-07-01 20:38:00,
2013-07-01 15:53:00,90.5,58.3,29.95,North,0,3.8,-999.0,34,-99.99,,,0.00,Acu-Link.com,2013-07-01 20:53:00,
2013-07-01 16:08:00,89.6,56.6,29.94,ENE,67,8.9,-999.0,33,-99.99,,,0.00,Acu-Link.com,2013-07-01 21:08:00,
2013-07-01 16:23:00,91.2,58.0,29.94,NW,315,4.3,-999.0,33,-99.99,,,0.00,Acu-Link.com,2013-07-01 21:23:00,
2013-07-01 16:39:00,89.6,56.6,29.94,ENE,67,7.4,-999.0,33,-99.99,,,0.00,Acu-Link.com,2013-07-01 21:39:00,
2013-07-01 16:54:00,88.9,56.0,29.94,ESE,112,8.3,-999.0,33,-99.99,,,0.00,Acu-Link.com,2013-07-01 21:54:00,
2013-07-01 17:09:00,88.9,56.0,29.93,NE,45,9.4,-999.0,33,-99.99,,,0.00,Acu-Link.com,2013-07-01 22:09:00,
2013-07-01 17:24:00,87.6,55.7,29.94,NE,45,5.1,-999.0,34,-99.99,,,0.00,Acu-Link.com,2013-07-01 22:24:00,
2013-07-01 17:39:00,88.0,56.1,29.93,ENE,67,5.8,-999.0,34,-99.99,,,0.00,Acu-Link.com,2013-07-01 22:39:00,
2013-07-01 17:55:00,87.8,56.7,29.92,ENE,67,7.4,-999.0,35,-99.99,,,0.00,Acu-Link.com,2013-07-01 22:55:00,
2013-07-01 18:10:00,87.3,56.2,29.93,NNE,22,9.8,-999.0,35,-99.99,,,0.00,Acu-Link.com,2013-07-01 23:10:00,
2013-07-01 18:25:00,87.1,56.9,29.92,NNW,337,4.3,-999.0,36,-99.99,,,0.00,Acu-Link.com,2013-07-01 23:25:00,
2013-07-01 18:40:00,86.4,56.2,29.92,NE,45,6.3,-999.0,36,-99.99,,,0.00,Acu-Link.com,2013-07-01 23:40:00,
2013-07-01 18:55:00,85.5,56.2,29.92,NNW,337,7.8,-999.0,37,-99.99,,,0.00,Acu-Link.com,2013-07-01 23:55:00,
2013-07-01 19:10:00,85.5,56.2,29.93,NE,45,8.9,-999.0,37,-99.99,,,0.00,Acu-Link.com,2013-07-02 00:10:00,
2013-07-01 19:26:00,85.1,58.0,29.94,ENE,67,5.8,-999.0,40,-99.99,,,0.00,Acu-Link.com,2013-07-02 00:26:00,
2013-07-01 19:41:00,84.4,57.4,29.94,NNE,22,5.8,-999.0,40,-99.99,,,0.00,Acu-Link.com,2013-07-02 00:41:00,
2013-07-01 19:56:00,83.7,57.4,29.94,NE,45,5.8,-999.0,41,-99.99,,,0.00,Acu-Link.com,2013-07-02 00:56:00,
2013-07-01 20:11:00,82.8,57.3,29.94,NNE,22,5.8,-999.0,42,-99.99,,,0.00,Acu-Link.com,2013-07-02 01:11:00,
2013-07-01 20:27:00,81.9,57.8,29.95,NNE,22,2.7,-999.0,44,-99.99,,,0.00,Acu-Link.com,2013-07-02 01:27:00,
2013-07-01 20:42:00,80.8,58.0,29.95,NE,45,3.8,-999.0,46,-99.99,,,0.00,Acu-Link.com,2013-07-02 01:42:00,
2013-07-01 20:57:00,79.3,57.9,29.95,NE,45,1.6,-999.0,48,-99.99,,,0.00,Acu-Link.com,2013-07-02 01:57:00,
2013-07-01 21:12:00,77.7,57.6,29.95,NNE,22,0.0,-999.0,50,-99.99,,,0.00,Acu-Link.com,2013-07-02 02:12:00,
2013-07-01 21:27:00,76.8,57.8,29.95,NNE,22,0.0,-999.0,52,-99.99,,,0.00,Acu-Link.com,2013-07-02 02:27:00,
2013-07-01 21:43:00,74.8,57.1,29.96,NNE,22,0.0,-999.0,54,-99.99,,,0.00,Acu-Link.com,2013-07-02 02:43:00,
2013-07-01 21:58:00,72.9,56.7,29.96,NNE,22,0.0,-999.0,57,-99.99,,,0.00,Acu-Link.com,2013-07-02 02:58:00,
2013-07-01 22:13:00,71.8,56.7,29.96,NNE,22,0.0,-999.0,59,-99.99,,,0.00,Acu-Link.com,2013-07-02 03:13:00,
2013-07-01 22:28:00,70.0,56.8,29.97,NNW,337,0.0,-999.0,63,-99.99,,,0.00,Acu-Link.com,2013-07-02 03:28:00,
2013-07-01 22:43:00,69.8,57.1,29.97,NNE,22,0.0,-999.0,64,-99.99,,,0.00,Acu-Link.com,2013-07-02 03:43:00,
2013-07-01 22:59:00,70.5,57.7,29.98,North,0,0.0,-999.0,64,-99.99,,,0.00,Acu-Link.com,2013-07-02 03:59:00,
2013-07-01 23:14:00,70.3,57.6,29.99,North,0,0.0,-999.0,64,-99.99,,,0.00,Acu-Link.com,2013-07-02 04:14:00,
2013-07-01 23:29:00,70.2,57.4,29.99,NNE,22,0.0,-999.0,64,-99.99,,,0.00,Acu-Link.com,2013-07-02 04:29:00,
2013-07-01 23:44:00,69.8,57.5,29.99,NNE,22,0.0,-999.0,65,-99.99,,,0.00,Acu-Link.com,2013-07-02 04:44:00,
2013-07-01 23:59:00,69.8,57.5,30.00,NE,45,0.0,-999.0,65,-99.99,,,0.00,Acu-Link.com,2013-07-02 04:59:00,